Regional Weather Roundup
Issued by NWS

Home | Current Version | Previous Version | Graphics & Text | Print | Product List | Glossary On
Versions: 1 2 3 4 5 6 7 8 9 10 11 12 13 14 15 16 17 18 19 20 21 22 23 24 25 26 27 28 29 30 31 32 33 34 35 36 37 38 39 40 41 42 43 44 45 46 47 48 49 50
000
ASUS43 KMKX 010400
RWRWI

WISCONSIN REGIONAL WEATHER ROUNDUP
NATIONAL WEATHER SERVICE MILWAUKEE/SULLIVAN WI
1100 PM CDT SUN AUG 31 2014

NOTE: "FAIR" INDICATES FEW OR NO CLOUDS BELOW 12,000 FEET WITH NO
SIGNIFICANT WEATHER AND/OR OBSTRUCTIONS TO VISIBILITY.

WIZ001-002-006>008-014>016-023>028-010500-
NORTHWEST WISCONSIN

CITY           SKY/WX    TMP DP  RH WIND       PRES   REMARKS
SUPERIOR ARPT  CLOUDY    61  61  98 N7        29.61S
ASHLAND        LGT RAIN  66  64  93 SE6       29.67F
HAYWARD        HVY RAIN  67  66  97 S7        29.69F FOG
SIREN          CLOUDY    71  66  83 SW5       29.66R
RICE LAKE      LGT RAIN  71  65  81 S12G18    29.72R
LADYSMITH      DRIZZLE   74  67  80 S6        29.72S
EAU CLAIRE     NOT AVBL
MENOMONIE      CLOUDY    73  63  70 SW6       29.70R
NEW RICHMOND   RAIN      70  64  83 SW14G20   29.72R
OSCEOLA        LGT RAIN  68  67  96 W9G25     29.72R
$$

WIZ003>005-009-010-017-018-010500-
NORTH CENTRAL WISCONSIN

CITY           SKY/WX    TMP DP  RH WIND       PRES   REMARKS
WOODRUFF       CLOUDY    72  67  86 S10       29.76R
RHINELANDER    CLOUDY    69  65  86 S10       29.79R
EAGLE RIVER    CLOUDY    66  66 100 S7        29.79R
LAND O LAKES   CLOUDY    68  65  90 S8        29.79R
PHILLIPS       CLOUDY    72  67  83 S7G16     29.73R
TOMAHAWK       CLOUDY    68  65  89 CALM      29.78R
MEDFORD        CLOUDY    71  63  77 S8        29.78R
MERRILL        CLOUDY    71  67  89 S6        29.77R
$$

WIZ029-030-035-036-043>047-010500-
CENTRAL WISCONSIN

CITY           SKY/WX    TMP DP  RH WIND       PRES   REMARKS
WAUSAU         CLOUDY    72  67  84 SE7       29.78R
MOSINEE        CLOUDY    70  68  94 SE5       29.79R
MARSHFIELD     CLOUDY    72  68  87 SE7       29.76S
STEVENS POINT  CLOUDY    71  66  84 SE5       29.78S
WAUPACA        MOCLDY    72  70  93 SE6       29.79R
WAUTOMA        NOT AVBL
WISC RAPIDS    CLOUDY    75  67  76 S9        29.78R
CAMP DOUGLAS   NOT AVBL
$$

WIZ011>013-019>022-031-037>040-048>050-010500-
NORTHEAST WISCONSIN

CITY           SKY/WX    TMP DP  RH WIND       PRES   REMARKS
ANTIGO         CLOUDY    66  66  98 S15       29.81S FOG
STURGEON BAY   CLOUDY    66  63  88 S10       29.82S
GREEN BAY      MOCLDY    67  65  93 S5        29.81R
MANITOWOC      FOG       66  66 100 S6        29.83R VSB 1/4
APPLETON       MOCLDY    70  68  94 SE9       29.80R
CLINTONVILLE   PTCLDY    64  64 100 SE3       29.80R FOG
OSHKOSH        CLEAR     69  67  93 S10       29.80R
$$

WIZ032>034-041-042-053>061-010500-
SOUTHWEST WISCONSIN

CITY           SKY/WX    TMP DP  RH WIND       PRES   REMARKS
LA CROSSE      CLOUDY    70  67  90 SE5       29.69F
SPARTA         CLOUDY    77  65  67 S10G20    29.74S
VIROQUA        FAIR      74  67  78 S9G18     29.77R
BOSCOBEL       CLOUDY    78  68  71 S7        29.77R HX  80
PRAIRIE DU CHI CLOUDY    79  66  64 S7        29.76R HX  81
PLATTEVILLE    FAIR      74  69  85 S12       29.81S
$$

WIZ056-057-062-063-064-067-068-010500-
SOUTH CENTRAL WISCONSIN

CITY           SKY/WX    TMP DP  RH WIND       PRES   REMARKS
BARABOO/DELLS  MOCLDY    74  66  75 S13       29.79R
LONE ROCK      NOT AVBL
WATERTOWN      CLEAR     71  69  94 S5        29.83R
MADISON        MOCLDY    75  69  81 S12       29.81S
MIDDLETON      FAIR      76  69  77 S13       29.82R
MONROE         CLOUDY    72  70  94 S14       29.83S
JANESVILLE     MOCLDY    73  68  83 S3        29.84R
$$

WIZ051-052-058>065-066-070>072-010500-
SOUTHEAST WISCONSIN

CITY           SKY/WX    TMP DP  RH WIND       PRES   REMARKS
MILWAUKEE      PTCLDY    74  66  76 S9        29.84S
WAUKESHA       CLEAR     70  64  83 S8        29.85S
MILWAUKEE/TIMM CLEAR     72  63  73 S7        29.84S
RACINE         PTCLDY    74  67  78 S7        29.86S
BURLINGTON     CLEAR     69  66  90 S5        29.85F
KENOSHA        PTCLDY    74  68  81 S10       29.86R
FOND DU LAC    PTCLDY    70  66  87 S8        29.81S
SHEBOYGAN      MOCLDY    68  67  96 S7        29.83R FOG
WEST BEND      PTCLDY    66  63  88 CALM      29.83S FOG
JUNEAU         CLEAR     72  67  85 S12       29.83S
$$

LSZ147-162-010500-
LAKE SUPERIOR

STATION/POSITION TIME  TEMP    WIND        PRES    WAVE
                       AIR SEA DIR/SP/G            HT/PER
                 (UTC) (F)     (DEG/KT/KT) (MB)    (FT/S)
W MID LAKE BUOY  0250   63 58  140/ 14/ 16 1003.3F   2/ 3
DEVILS ISLAND    0300   67     200/ 11/ 15 1003.0F
PORT WING        0340   68     150/  7/ 13 1002.7F
SAXON HARBOR     0320   73     260/  6/ 21 1004.7R
$$

LMZ867-665-643>646-010500-
LAKE MICHIGAN

STATION/POSITION TIME  TEMP    WIND        PRES    WAVE
                       AIR SEA DIR/SP/G            HT/PER
                 (UTC) (F)     (DEG/KT/KT) (MB)    (FT/S)
N MID LAKE BUOY  0250   65 65  140/ 12/ 12 1009.7F   1
NORTHPORT PIER   0300   65     150/ 10/ 14 1009.5F
KEWAUNEE LAKESHO 0300   61     180/  5/  6 1008.8F
SHEBOYGAN LAKESH 0300   65 50  150/  6/  7 1010.0F
ATWATER BUOY     0300   71     160/ 10/ 12 1011.2F
MILWAUKEE LAKESH 0300   70     150/  4/  6   N/A
S MID LAKE BUOY  0250   72 71  150/ 12/ 14 1010.5F   1
KENOSHA   LAKESH 0300   75     190/  7/ 12 1010.5S
$$

TC  - TEMPERATURE IN CELSIUS
VSB - VISIBILITY IN STATUTE MILES
WCI - WIND CHILL INDEX
HX  - HEAT INDEX




USA.gov is the U.S. government's official web portal to all federal, state and local government web resources and services.